[[{"header":{"parameterUnit":"m.s-1","parameterCategory":1,"la1":30.2991,"la2":30.254,"lo1":-89.0895,"lo2":-89.0444,"dy":0.0017,"dx":0.0017,"nx":28,"ny":28,"refTime":"2025-07-11T09:00:00:Z","depth":0,"parameterNumber":2,"parameterNumberName":"U-component_of_WINDS"},"data":[0,0,0,0,0,0,0,0,0,0,0,0,0,0,0,0,0,0,0,0,0,0,0,0,0,0,0,0,0,0,0,0,0,0,0,0,0,0,0,0,0,0,0,0,0,0,0,0,0,0,0,0,0,0,0,0,0,0,0.8126,0.8126,0,0.8138,0.8139,0.8139,0.8115,0.8114,0.8113,0.8112,0.8128,0.8129,0.813,0,0,0,0,0,0,0,0,0,0,0,0,0,0.8084,0.8085,0.8126,0.8126,0.8126,0.8138,0.8139,0.8139,0.8115,0.8114,0.8113,0.8112,0.8128,0.8129,0.813,0,0,0,0,0,0,0,0,0,0,0,0,0,0.81,0.8085,0.8126,0.8115,0.8115,0.8138,0.8139,0.8139,0.8115,0.8114,0.8113,0.8112,0.8127,0.8129,0.8131,0.8165,0,0,0.8136,0.8137,0,0,0,0,0,0,0,0,0.8099,0.8101,0.8117,0.8116,0.8115,0.8124,0.8129,0.8148,0.8115,0.8115,0.8112,0.8111,0.8128,0.8129,0.8134,0.8166,0.8167,0.8136,0.8137,0.8138,0.8138,0,0,0,0,0,0,0,0.8098,0.8101,0.8131,0.8117,0.8116,0.8111,0.8112,0.8133,0.8128,0.8115,0.8113,0.8115,0.8127,0.8133,0.8135,0.8167,0.8136,0.8137,0.8139,0.8139,0.8231,0.8232,0,0,0,0,0,0,0.8098,0.81,0.813,0.8131,0.8104,0.8113,0.8114,0.8122,0.8128,0.8127,0.8116,0.8114,0.813,0.8133,0.8135,0.8179,0.8138,0.8139,0.814,0.823,0.8231,0.8233,0,0,0,0,0,0,0.8097,0.8101,0.813,0.8115,0.8118,0.8115,0.8124,0.8123,0.8129,0.8128,0.8128,0.8123,0.813,0.8133,0.8159,0.8179,0.814,0.8142,0.8228,0.823,0.8232,0.8265,0,0,0,0,0,0,0.8096,0.81,0.8113,0.8116,0.8119,0.8152,0.8126,0.8124,0.8132,0.8129,0.8134,0.8134,0.8129,0.8156,0.816,0.8181,0.8143,0.8226,0.8229,0.8232,0.8262,0.8268,0.8273,0,0,0,0,0,0.8094,0.8121,0.8113,0.8117,0.8135,0.8153,0.8156,0.8148,0.8133,0.8147,0.8147,0.8134,0.8175,0.8159,0.8163,0.8185,0.8225,0.8228,0.8231,0.826,0.8267,0.8273,0,0,0,0,0,0,0.8122,0.8121,0.8113,0.8141,0.8148,0.8149,0.8166,0.8155,0.8167,0.8164,0.8155,0.8156,0.8185,0.8187,0.8168,0.822,0.8198,0.8202,0.8218,0.8225,0.823,0.823,0.8145,0,0,0,0,0,0.8131,0.8145,0.8144,0.817,0.8173,0.8169,0.8177,0.8171,0.8177,0.818,0.8181,0.8189,0.8204,0.8214,0.8227,0.8262,0.8264,0.8279,0.8284,0.8288,0.8293,0.8315,0.8322,0.8243,0.8243,0.8243,0,0,0.815,0.8152,0.8162,0.8175,0.8179,0.8196,0.8171,0.8189,0.8202,0.8183,0.8208,0.821,0.8217,0.8249,0.8262,0.8251,0.8315,0.8292,0.8296,0.8298,0.8319,0.8326,0.8333,0.8245,0.8245,0.8245,0,0,0.8195,0.8196,0.8219,0.8224,0.823,0.8227,0.8233,0.8236,0.8237,0.8261,0.8248,0.8263,0.8288,0.8296,0.8302,0.8351,0.8341,0.8356,0.8385,0.8406,0.8412,0.8418,0.8438,0.8445,0.836,0.836,0.836,0,0.8219,0.8242,0.8232,0.8252,0.8259,0.8242,0.8266,0.8271,0.8282,0.8288,0.8275,0.8308,0.8312,0.8346,0.8358,0.8363,0.8371,0.8356,0.8412,0.8417,0.8422,0.8442,0.8449,0.8362,0.8362,0.8361,0.8361,0,0.8273,0.8289,0.8307,0.8318,0.8327,0.8349,0.8344,0.8354,0.8347,0.8347,0.8374,0.8378,0.8393,0.84,0.8393,0.8434,0.8427,0.8413,0.8391,0.8432,0.8451,0.8458,0.8365,0.8364,0.8363,0.8363,0,0,0.8336,0.8341,0.8348,0.8354,0.836,0.8374,0.8395,0.841,0.8421,0.8429,0.8449,0.8471,0.8459,0.8467,0.846,0.8478,0.8521,0.8463,0.8463,0.8476,0.857,0.8583,0.8591,0.8513,0.8515,0.8516,0.857,0,0.8383,0.842,0.8412,0.8449,0.8466,0.8449,0.8469,0.8476,0.8475,0.8491,0.8491,0.8508,0.8488,0.8494,0.8511,0.8512,0.854,0.8508,0.8534,0.8536,0.8536,0.86,0.8614,0.8665,0.8577,0.8578,0.8579,0,0.8443,0.8453,0.8492,0.8498,0.8504,0.8522,0.8536,0.8549,0.8558,0.8557,0.8566,0.8557,0.8581,0.8557,0.8591,0.8569,0.8579,0.8582,0.8584,0.8588,0.8562,0.861,0.8681,0.869,0.859,0.8589,0.8588,0,0.8489,0.8513,0.854,0.8545,0.8551,0.8564,0.8567,0.8574,0.8584,0.8596,0.8604,0.8618,0.8627,0.864,0.8636,0.8618,0.8672,0.8647,0.8675,0.8675,0.8689,0.8689,0.8766,0.869,0.869,0.869,0.869,0,0.8544,0.8569,0.8561,0.8578,0.8607,0.8597,0.8626,0.8628,0.8634,0.8653,0.8638,0.8656,0.8649,0.8667,0.8663,0.8694,0.8697,0.8699,0.8699,0.8702,0.8703,0.8711,0.8709,0.8692,0.8692,0.8691,0.8691,0,0.8602,0.8597,0.8626,0.8629,0.8631,0.8652,0.8656,0.8673,0.8671,0.8695,0.87,0.8698,0.8719,0.8716,0.8738,0.8736,0.8776,0.8769,0.8773,0.8773,0.8802,0.8801,0.889,0.8903,0.8816,0.8816,0.8817,0,0.8639,0.8658,0.8664,0.8675,0.8679,0.8697,0.8707,0.8699,0.871,0.8722,0.8738,0.8757,0.8772,0.8806,0.8808,0.8826,0.8822,0.8852,0.8825,0.8829,0.8827,0.8827,0.8831,0.8859,0.886,0.886,0.8861,0,0.8706,0.8703,0.8718,0.8733,0.8745,0.8756,0.8766,0.8776,0.8769,0.8783,0.8804,0.8816,0.8839,0.886,0.8877,0.8882,0.8872,0.8869,0.8877,0.8883,0.8886,0.8888,0.8792,0.8868,0.8867,0.8867,0.8866,0.8866,0.8757,0.8775,0.8782,0.8799,0.8806,0.8816,0.8833,0.8833,0.885,0.8868,0.8862,0.8887,0.8896,0.8918,0.8925,0.8946,0.8935,0.8945,0.8949,0.8952,0.8958,0.888,0.8948,0.8948,0.8948,0.8948,0.8947,0,0.8827,0.8831,0.8847,0.8861,0.8876,0.8863,0.8873,0.8887,0.8909,0.8918,0.8933,0.8958,0.8978,0.8982,0.9001,0.9017,0.9013,0.9023,0.9024,0.9026,0.8964,0.8957,0.9026,0.9026,0.9026,0.9026,0.9026,0.9026,0.8865,0.8895,0.8893,0.8926,0.893,0.8953,0.8961,0.8971,0.8978,0.9007,0.9023,0.9025,0.9033,0.9053,0.9072,0.9072,0.9082,0.9094,0.9094,0.9037,0.9029,0.9022,0.9015,0.9096,0.9096,0.9154,0.9154,0.9155]},{"header":{"parameterUnit":"m.s-1","parameterCategory":1,"la1":30.2991,"la2":30.254,"lo1":-89.0895,"lo2":-89.0444,"dy":0.0017,"dx":0.0017,"nx":28,"ny":28,"refTime":"2025-07-11T09:00:00:Z","depth":0,"parameterNumber":3,"parameterNumberName":"V-component_of_WINDS"},"data":[0,0,0,0,0,0,0,0,0,0,0,0,0,0,0,0,0,0,0,0,0,0,0,0,0,0,0,0,0,0,0,0,0,0,0,0,0,0,0,0,0,0,0,0,0,0,0,0,0,0,0,0,0,0,0,0,0,0,-0.3957,-0.3958,0,-0.406,-0.4061,-0.4063,-0.4092,-0.4092,-0.4091,-0.4091,-0.4197,-0.42,-0.4204,0,0,0,0,0,0,0,0,0,0,0,0,0,-0.3787,-0.379,-0.3957,-0.3958,-0.396,-0.406,-0.4061,-0.4063,-0.4093,-0.4092,-0.4091,-0.4091,-0.4196,-0.42,-0.4204,0,0,0,0,0,0,0,0,0,0,0,0,0,-0.3872,-0.3791,-0.3957,-0.3986,-0.399,-0.406,-0.4061,-0.4063,-0.4093,-0.4092,-0.4091,-0.409,-0.4195,-0.42,-0.4205,-0.4252,0,0,-0.422,-0.4222,0,0,0,0,0,0,0,0,-0.3868,-0.3879,-0.3981,-0.3985,-0.3989,-0.4063,-0.404,-0.4127,-0.4093,-0.4054,-0.4091,-0.409,-0.4153,-0.4161,-0.4183,-0.4257,-0.4262,-0.422,-0.4223,-0.4226,-0.4227,0,0,0,0,0,0,0,-0.3862,-0.3874,-0.3998,-0.3982,-0.3987,-0.3995,-0.4006,-0.4057,-0.4107,-0.4057,-0.406,-0.4071,-0.4155,-0.4178,-0.4185,-0.4263,-0.422,-0.4225,-0.4228,-0.423,-0.4383,-0.4384,0,0,0,0,0,0,-0.385,-0.3869,-0.3995,-0.4001,-0.3925,-0.3999,-0.4011,-0.404,-0.4106,-0.4116,-0.4072,-0.4072,-0.417,-0.4179,-0.4189,-0.425,-0.4225,-0.423,-0.4233,-0.4382,-0.4383,-0.4384,0,0,0,0,0,0,-0.3847,-0.3861,-0.399,-0.3936,-0.3953,-0.4003,-0.4034,-0.4042,-0.4065,-0.4118,-0.4127,-0.4086,-0.4169,-0.4182,-0.4236,-0.4254,-0.4232,-0.4237,-0.4381,-0.4382,-0.4384,-0.4371,0,0,0,0,0,0,-0.3842,-0.386,-0.3878,-0.3936,-0.3956,-0.4035,-0.4035,-0.4045,-0.4073,-0.4075,-0.4133,-0.4142,-0.417,-0.4229,-0.4241,-0.4261,-0.4241,-0.4379,-0.4381,-0.4383,-0.437,-0.4372,-0.4374,0,0,0,0,0,-0.3835,-0.387,-0.3879,-0.3894,-0.3979,-0.4036,-0.4048,-0.4079,-0.4075,-0.4094,-0.4128,-0.414,-0.425,-0.4234,-0.4249,-0.4269,-0.4378,-0.4381,-0.4383,-0.437,-0.4372,-0.4374,0,0,0,0,0,0,-0.3813,-0.3879,-0.3889,-0.3943,-0.3984,-0.4041,-0.4066,-0.408,-0.4123,-0.4123,-0.416,-0.4173,-0.4224,-0.4252,-0.4234,-0.432,-0.4315,-0.432,-0.4299,-0.4302,-0.4304,-0.4296,-0.4245,0,0,0,0,0,-0.3815,-0.3855,-0.391,-0.3953,-0.3973,-0.4016,-0.4042,-0.4063,-0.4106,-0.4124,-0.4162,-0.4204,-0.4248,-0.4277,-0.432,-0.4374,-0.4388,-0.4396,-0.4398,-0.4399,-0.4403,-0.4435,-0.4439,-0.4392,-0.4392,-0.4392,0,0,-0.3818,-0.3859,-0.3882,-0.395,-0.3984,-0.4026,-0.403,-0.4074,-0.4106,-0.4131,-0.4184,-0.4214,-0.4263,-0.4318,-0.4344,-0.4343,-0.4419,-0.4402,-0.4403,-0.4407,-0.4438,-0.4442,-0.4446,-0.4394,-0.4393,-0.4393,0,0,-0.3846,-0.3881,-0.3921,-0.3955,-0.4006,-0.4035,-0.4044,-0.41,-0.412,-0.4174,-0.4194,-0.4232,-0.4307,-0.4342,-0.437,-0.4411,-0.4425,-0.4424,-0.4434,-0.4464,-0.4468,-0.4471,-0.4487,-0.4492,-0.4429,-0.4429,-0.4429,0,-0.3844,-0.3907,-0.394,-0.3983,-0.4012,-0.4036,-0.4078,-0.4109,-0.4172,-0.4192,-0.419,-0.4285,-0.432,-0.4384,-0.4394,-0.4415,-0.4428,-0.4418,-0.4465,-0.4469,-0.4472,-0.4488,-0.4493,-0.4428,-0.4428,-0.4428,-0.4428,0,-0.3903,-0.3946,-0.3972,-0.4033,-0.4065,-0.4107,-0.4146,-0.4175,-0.4192,-0.4221,-0.4277,-0.432,-0.4373,-0.4389,-0.4407,-0.4455,-0.4453,-0.4457,-0.4453,-0.4476,-0.4491,-0.4497,-0.4428,-0.4428,-0.4428,-0.4428,0,0,-0.392,-0.3997,-0.4007,-0.4035,-0.4093,-0.4128,-0.4171,-0.4223,-0.4247,-0.429,-0.4327,-0.439,-0.4395,-0.4426,-0.4448,-0.4474,-0.4505,-0.4476,-0.4477,-0.448,-0.4563,-0.4559,-0.4565,-0.4514,-0.4516,-0.4517,-0.4559,0,-0.3955,-0.4033,-0.4064,-0.4127,-0.4168,-0.4192,-0.423,-0.427,-0.4298,-0.4337,-0.4369,-0.4413,-0.4415,-0.4434,-0.4462,-0.4496,-0.4523,-0.4493,-0.455,-0.4552,-0.4537,-0.4573,-0.457,-0.4608,-0.4565,-0.4566,-0.4566,0,-0.4007,-0.4051,-0.4118,-0.4173,-0.4191,-0.4224,-0.4274,-0.4311,-0.4358,-0.4376,-0.4411,-0.4432,-0.4478,-0.4471,-0.4536,-0.4515,-0.4541,-0.4561,-0.4563,-0.457,-0.4561,-0.4582,-0.462,-0.4626,-0.4576,-0.4575,-0.4574,0,-0.4014,-0.4089,-0.4139,-0.4162,-0.4227,-0.425,-0.4278,-0.4323,-0.4353,-0.4397,-0.4416,-0.4465,-0.4492,-0.4529,-0.4562,-0.4554,-0.4625,-0.462,-0.4642,-0.4641,-0.4656,-0.4655,-0.47,-0.4671,-0.4671,-0.4671,-0.4671,0,-0.4051,-0.4091,-0.4143,-0.4174,-0.422,-0.4255,-0.43,-0.433,-0.437,-0.4408,-0.4431,-0.4466,-0.4508,-0.4548,-0.4574,-0.4625,-0.4636,-0.4653,-0.466,-0.4651,-0.4649,-0.4669,-0.4667,-0.4673,-0.4672,-0.4672,-0.4672,0,-0.4066,-0.4102,-0.4158,-0.4215,-0.423,-0.4262,-0.431,-0.4342,-0.4371,-0.4418,-0.4431,-0.4477,-0.4526,-0.4563,-0.4626,-0.4643,-0.4697,-0.4704,-0.4681,-0.4685,-0.4705,-0.4703,-0.4765,-0.4775,-0.4739,-0.4739,-0.4739,0,-0.4087,-0.4119,-0.4179,-0.4206,-0.4233,-0.4276,-0.4306,-0.4342,-0.4372,-0.4428,-0.4453,-0.4503,-0.4545,-0.4622,-0.4661,-0.471,-0.4718,-0.4737,-0.4726,-0.4717,-0.4719,-0.4717,-0.4721,-0.4738,-0.4738,-0.4738,-0.4739,0,-0.4122,-0.4138,-0.4181,-0.423,-0.4265,-0.4305,-0.4346,-0.4366,-0.4409,-0.4442,-0.4493,-0.4525,-0.459,-0.464,-0.4692,-0.4722,-0.4738,-0.4742,-0.4749,-0.4741,-0.4727,-0.4736,-0.4686,-0.474,-0.474,-0.474,-0.474,-0.474,-0.4141,-0.4171,-0.4218,-0.4264,-0.4299,-0.4336,-0.4369,-0.4402,-0.4444,-0.45,-0.4518,-0.457,-0.4616,-0.4689,-0.4718,-0.476,-0.476,-0.4771,-0.4774,-0.4776,-0.4776,-0.472,-0.4769,-0.4769,-0.4769,-0.4769,-0.4769,0,-0.4178,-0.4209,-0.4251,-0.4308,-0.4345,-0.4356,-0.4402,-0.4432,-0.4477,-0.4519,-0.456,-0.4618,-0.4667,-0.471,-0.476,-0.4785,-0.4794,-0.4797,-0.4796,-0.4803,-0.4773,-0.4761,-0.479,-0.479,-0.479,-0.479,-0.479,-0.479,-0.4201,-0.4252,-0.4274,-0.4342,-0.4374,-0.4424,-0.445,-0.4485,-0.4518,-0.4582,-0.4622,-0.465,-0.4693,-0.4747,-0.4792,-0.4804,-0.4821,-0.4823,-0.4836,-0.4807,-0.4805,-0.4803,-0.4792,-0.4827,-0.4827,-0.4864,-0.4864,-0.4864]}]]